[[{"header":{"parameterUnit":"m.s-1","parameterCategory":1,"la1":30.2991,"la2":30.254,"lo1":-89.0895,"lo2":-89.0444,"dy":0.0017,"dx":0.0017,"nx":28,"ny":28,"refTime":"2025-03-16T09:00:00:Z","depth":0,"parameterNumber":2,"parameterNumberName":"U-component_of_WINDS"},"data":[0,0,0,0,0,0,0,0,0,0,0,0,0,0,0,0,0,0,0,0,0,0,0,0,0,0,0,0,0,0,0,0,0,0,0,0,0,0,0,0,0,0,0,0,0,0,0,0,0,0,0,0,0,0,0,0,0,0,2.6256,2.6257,0,2.631,2.631,2.6311,2.6281,2.6279,2.6278,2.6276,2.633,2.6333,2.6336,0,0,0,0,0,0,0,0,0,0,0,0,0,2.6126,2.6129,2.6256,2.6257,2.6257,2.631,2.631,2.6311,2.6281,2.6279,2.6277,2.6276,2.6329,2.6333,2.6336,0,0,0,0,0,0,0,0,0,0,0,0,0,2.6181,2.6129,2.6256,2.6249,2.6248,2.631,2.6311,2.6311,2.6281,2.6279,2.6277,2.6275,2.6328,2.6332,2.6337,2.6407,0,0,2.6349,2.6351,0,0,0,0,0,0,0,0,2.6178,2.6186,2.6249,2.6249,2.6249,2.6286,2.6284,2.6344,2.6282,2.6269,2.6276,2.6274,2.6317,2.6322,2.6337,2.641,2.6412,2.635,2.6352,2.6354,2.6355,0,0,0,0,0,0,0,2.6174,2.6184,2.6277,2.625,2.625,2.6242,2.6248,2.6295,2.6305,2.627,2.6268,2.6275,2.6317,2.6333,2.6338,2.6413,2.635,2.6353,2.6356,2.6358,2.6547,2.6549,0,0,0,0,0,0,2.6171,2.6181,2.6275,2.6279,2.6208,2.6246,2.6253,2.6277,2.6304,2.6306,2.6276,2.6273,2.6327,2.6333,2.634,2.6425,2.6354,2.6358,2.6361,2.6545,2.6548,2.655,0,0,0,0,0,0,2.6169,2.618,2.6273,2.6229,2.6241,2.6251,2.6278,2.6279,2.6295,2.6309,2.6311,2.6291,2.6326,2.6334,2.6391,2.6426,2.636,2.6364,2.6542,2.6545,2.6549,2.6595,0,0,0,0,0,0,2.6165,2.6179,2.6206,2.623,2.6243,2.6324,2.6281,2.6282,2.6303,2.6299,2.6324,2.6326,2.6325,2.6385,2.6395,2.6431,2.6367,2.6538,2.6543,2.6548,2.6591,2.66,2.6608,0,0,0,0,0,2.616,2.6217,2.6208,2.6219,2.6277,2.6326,2.6333,2.6331,2.6306,2.6333,2.6342,2.6325,2.6421,2.6391,2.6402,2.644,2.6536,2.6542,2.6547,2.6587,2.6598,2.6608,0,0,0,0,0,0,2.6196,2.622,2.621,2.6276,2.6299,2.6321,2.6355,2.6343,2.6374,2.6368,2.6364,2.637,2.6429,2.644,2.6406,2.651,2.6475,2.6483,2.6501,2.6512,2.652,2.6516,2.6371,0,0,0,0,0,2.6212,2.625,2.6268,2.6325,2.6337,2.6344,2.6365,2.6361,2.6385,2.6395,2.6408,2.6431,2.6467,2.649,2.6523,2.6592,2.6597,2.6624,2.6633,2.664,2.6647,2.6684,2.6696,2.6569,2.6569,2.6568,0,0,2.6245,2.6262,2.6286,2.6332,2.635,2.6389,2.6352,2.6395,2.6424,2.6401,2.6455,2.6466,2.6492,2.6555,2.6584,2.6566,2.6683,2.6647,2.6653,2.6655,2.6691,2.6703,2.6714,2.6572,2.6572,2.6571,0,0,2.6324,2.6341,2.639,2.6409,2.6436,2.644,2.6452,2.6476,2.6482,2.6537,2.6521,2.6555,2.6616,2.6635,2.6653,2.6741,2.6726,2.6752,2.6797,2.6834,2.6844,2.6853,2.6883,2.6894,2.6759,2.6759,2.6759,0,2.6361,2.6419,2.6416,2.6461,2.6481,2.6463,2.6513,2.6531,2.6567,2.6582,2.6562,2.6639,2.6655,2.6723,2.6744,2.6759,2.6772,2.6748,2.6843,2.6851,2.686,2.6889,2.6901,2.6762,2.6761,2.6761,2.6761,0,2.6463,2.6503,2.654,2.6576,2.6601,2.6647,2.6652,2.6678,2.6672,2.6679,2.6735,2.6754,2.6791,2.6807,2.6802,2.6874,2.6862,2.6843,2.6807,2.6875,2.6902,2.6913,2.6766,2.6765,2.6764,2.6763,0,0,2.6565,2.66,2.6613,2.663,2.6659,2.669,2.6736,2.6773,2.6795,2.6821,2.6859,2.6912,2.6894,2.6914,2.6911,2.6944,2.7011,2.692,2.6921,2.6936,2.7092,2.7106,2.7119,2.7002,2.7005,2.7006,2.7089,0,2.6645,2.6725,2.6725,2.6799,2.6837,2.6821,2.6861,2.6883,2.6891,2.6924,2.6932,2.6969,2.6943,2.6956,2.6987,2.6997,2.7043,2.6991,2.7037,2.7039,2.703,2.7133,2.7148,2.7225,2.71,2.7102,2.7103,0,2.6749,2.678,2.6858,2.6882,2.6898,2.6934,2.6967,2.6999,2.7024,2.7028,2.7051,2.7043,2.709,2.7054,2.7117,2.7082,2.7101,2.7109,2.7112,2.7115,2.7074,2.7138,2.725,2.7261,2.712,2.7119,2.7118,0,2.6815,2.6875,2.693,2.6945,2.6974,2.7,2.7014,2.7037,2.7059,2.7089,2.7103,2.7138,2.7156,2.7183,2.7185,2.7159,2.725,2.7213,2.7253,2.7253,2.7272,2.7271,2.7387,2.7286,2.7286,2.7286,2.7286,0,2.6904,2.6952,2.696,2.6993,2.7047,2.7046,2.7099,2.7111,2.7131,2.7167,2.7155,2.7188,2.7189,2.7223,2.7225,2.7278,2.7287,2.729,2.729,2.7291,2.729,2.7302,2.7297,2.7289,2.7288,2.7288,2.7287,0,2.6986,2.6993,2.7051,2.7075,2.7083,2.7121,2.7141,2.7173,2.718,2.7225,2.7235,2.7247,2.7286,2.7291,2.7337,2.7339,2.7401,2.7396,2.7393,2.7392,2.7431,2.7427,2.7559,2.7576,2.7465,2.7466,2.7467,0,2.7042,2.7079,2.7107,2.713,2.7145,2.7182,2.7205,2.7206,2.7231,2.7263,2.729,2.7329,2.736,2.7424,2.7436,2.7471,2.7466,2.751,2.7471,2.747,2.7465,2.7463,2.7466,2.7517,2.7518,2.7519,2.752,0,2.7141,2.7142,2.7176,2.7211,2.7239,2.7267,2.7292,2.7312,2.7316,2.7344,2.7385,2.7409,2.7456,2.7495,2.753,2.7543,2.7532,2.7532,2.7543,2.7543,2.754,2.7541,2.7412,2.7529,2.7528,2.7527,2.7527,2.7526,2.7211,2.7243,2.7267,2.7305,2.7325,2.735,2.7381,2.7393,2.7427,2.7465,2.7464,2.7509,2.7533,2.7579,2.7596,2.7631,2.7616,2.7632,2.7636,2.7639,2.7643,2.7535,2.7637,2.7637,2.7637,2.7636,2.7636,0,2.7308,2.7323,2.7358,2.7395,2.7425,2.7413,2.7441,2.7467,2.7506,2.7531,2.7561,2.7608,2.7646,2.7661,2.7698,2.7723,2.7718,2.7732,2.773,2.7733,2.7654,2.7641,2.7735,2.7735,2.7735,2.7735,2.7735,2.7735,2.7362,2.7415,2.742,2.7483,2.7498,2.7542,2.7559,2.7582,2.7601,2.7654,2.7685,2.7695,2.7716,2.7754,2.7788,2.7792,2.7805,2.7821,2.7822,2.7748,2.7738,2.7729,2.7716,2.7824,2.7824,2.7898,2.7898,2.7899]},{"header":{"parameterUnit":"m.s-1","parameterCategory":1,"la1":30.2991,"la2":30.254,"lo1":-89.0895,"lo2":-89.0444,"dy":0.0017,"dx":0.0017,"nx":28,"ny":28,"refTime":"2025-03-16T09:00:00:Z","depth":0,"parameterNumber":3,"parameterNumberName":"V-component_of_WINDS"},"data":[0,0,0,0,0,0,0,0,0,0,0,0,0,0,0,0,0,0,0,0,0,0,0,0,0,0,0,0,0,0,0,0,0,0,0,0,0,0,0,0,0,0,0,0,0,0,0,0,0,0,0,0,0,0,0,0,0,0,-4.1994,-4.1996,0,-4.2207,-4.2209,-4.2211,-4.2185,-4.2181,-4.2178,-4.2175,-4.2394,-4.2403,-4.2412,0,0,0,0,0,0,0,0,0,0,0,0,0,-4.1566,-4.1574,-4.1994,-4.1996,-4.1999,-4.2206,-4.2209,-4.2212,-4.2185,-4.2181,-4.2177,-4.2173,-4.2391,-4.2402,-4.2412,0,0,0,0,0,0,0,0,0,0,0,0,0,-4.1763,-4.1577,-4.1993,-4.2011,-4.2014,-4.2206,-4.2209,-4.2213,-4.2186,-4.2181,-4.2176,-4.2171,-4.2387,-4.24,-4.2414,-4.2602,0,0,-4.2455,-4.2461,0,0,0,0,0,0,0,0,-4.1752,-4.1779,-4.2005,-4.201,-4.2014,-4.2164,-4.2139,-4.2343,-4.2188,-4.2121,-4.2175,-4.2169,-4.2322,-4.234,-4.2392,-4.2612,-4.2621,-4.2457,-4.2465,-4.2471,-4.2475,0,0,0,0,0,0,0,-4.1738,-4.1769,-4.2078,-4.2009,-4.2014,-4.2009,-4.2031,-4.2177,-4.2248,-4.2126,-4.2125,-4.2151,-4.2323,-4.2379,-4.2397,-4.2625,-4.2456,-4.2468,-4.2477,-4.2482,-4.3012,-4.3018,0,0,0,0,0,0,-4.172,-4.1758,-4.2071,-4.2084,-4.1868,-4.2021,-4.2045,-4.2121,-4.2246,-4.226,-4.2155,-4.2149,-4.2358,-4.2381,-4.2404,-4.2634,-4.2471,-4.2483,-4.2491,-4.3006,-4.3013,-4.302,0,0,0,0,0,0,-4.1711,-4.1748,-4.2062,-4.1921,-4.1961,-4.2033,-4.2119,-4.2128,-4.2184,-4.2268,-4.228,-4.2199,-4.2355,-4.2385,-4.2553,-4.2641,-4.2489,-4.2502,-4.2999,-4.3008,-4.3017,-4.3094,0,0,0,0,0,0,-4.1699,-4.1745,-4.1816,-4.1923,-4.1968,-4.2208,-4.2124,-4.2136,-4.2207,-4.2201,-4.2312,-4.2325,-4.2353,-4.2533,-4.2567,-4.2657,-4.2512,-4.2992,-4.3003,-4.3014,-4.3084,-4.3105,-4.3122,0,0,0,0,0,-4.1684,-4.183,-4.182,-4.1858,-4.2059,-4.2213,-4.2239,-4.2267,-4.2214,-4.2287,-4.2341,-4.2322,-4.2626,-4.2551,-4.2588,-4.2684,-4.2986,-4.3,-4.3013,-4.3076,-4.3101,-4.3122,0,0,0,0,0,0,-4.1732,-4.1844,-4.1835,-4.2019,-4.2107,-4.2208,-4.2301,-4.2292,-4.2397,-4.2387,-4.2418,-4.2443,-4.2614,-4.2665,-4.258,-4.2873,-4.2799,-4.282,-4.2834,-4.2858,-4.2877,-4.2861,-4.2524,0,0,0,0,0,-4.1764,-4.1879,-4.1971,-4.2125,-4.2169,-4.2228,-4.2296,-4.231,-4.2402,-4.2439,-4.2505,-4.2596,-4.2712,-4.2787,-4.2899,-4.3091,-4.3116,-4.3176,-4.3195,-4.321,-4.3228,-4.3336,-4.3364,-4.3064,-4.3063,-4.3063,0,0,-4.1832,-4.1907,-4.1978,-4.2137,-4.2206,-4.2325,-4.2259,-4.2387,-4.2477,-4.2458,-4.2622,-4.2674,-4.2777,-4.2958,-4.3042,-4.3007,-4.3317,-4.3227,-4.3238,-4.3249,-4.3353,-4.3381,-4.3406,-4.3073,-4.3071,-4.307,0,0,-4.2016,-4.2084,-4.2221,-4.2292,-4.2398,-4.2436,-4.2469,-4.2572,-4.2606,-4.277,-4.276,-4.2866,-4.3065,-4.314,-4.3204,-4.3418,-4.3405,-4.3453,-4.3553,-4.3658,-4.3681,-4.3703,-4.3781,-4.3808,-4.3471,-4.3471,-4.3472,0,-4.2087,-4.2266,-4.2292,-4.2423,-4.2494,-4.2483,-4.2623,-4.269,-4.2828,-4.2877,-4.2836,-4.3086,-4.3155,-4.3355,-4.3407,-4.3458,-4.3498,-4.3441,-4.3676,-4.3697,-4.3717,-4.3793,-4.3822,-4.3477,-4.3476,-4.3476,-4.3475,0,-4.2349,-4.2473,-4.2571,-4.2704,-4.2786,-4.292,-4.2968,-4.3048,-4.3055,-4.3098,-4.3267,-4.3349,-4.3477,-4.3525,-4.3534,-4.3727,-4.3703,-4.3668,-4.3594,-4.3751,-4.3822,-4.3851,-4.3484,-4.3483,-4.3481,-4.348,0,0,-4.257,-4.2717,-4.2752,-4.2813,-4.293,-4.3027,-4.3161,-4.3287,-4.3356,-4.3451,-4.3566,-4.3735,-4.3704,-4.3777,-4.3793,-4.3885,-4.4052,-4.384,-4.3843,-4.3878,-4.4273,-4.4299,-4.4332,-4.4043,-4.4049,-4.4053,-4.4265,0,-4.2767,-4.3005,-4.3033,-4.3245,-4.3361,-4.3353,-4.3471,-4.3555,-4.3599,-4.3705,-4.3753,-4.3873,-4.3823,-4.3867,-4.3957,-4.4013,-4.4132,-4.3997,-4.4152,-4.4157,-4.4128,-4.4369,-4.4397,-4.4593,-4.4293,-4.4297,-4.4301,0,-4.3029,-4.3132,-4.3356,-4.3458,-4.3508,-4.3613,-4.3731,-4.3832,-4.3928,-4.3954,-4.4036,-4.4041,-4.4182,-4.4101,-4.4296,-4.4204,-4.4269,-4.4306,-4.4314,-4.4331,-4.424,-4.4394,-4.4656,-4.4686,-4.4345,-4.4341,-4.4338,0,-4.3171,-4.3365,-4.3524,-4.3576,-4.3699,-4.3773,-4.3828,-4.392,-4.3994,-4.4097,-4.4146,-4.4265,-4.433,-4.4423,-4.446,-4.4398,-4.4654,-4.4576,-4.4681,-4.468,-4.4736,-4.4732,-4.5014,-4.4775,-4.4775,-4.4774,-4.4773,0,-4.3389,-4.3526,-4.359,-4.3688,-4.3842,-4.3874,-4.4026,-4.4078,-4.416,-4.4269,-4.4268,-4.4371,-4.4414,-4.4523,-4.4554,-4.4712,-4.4741,-4.4767,-4.4773,-4.4768,-4.4765,-4.4812,-4.48,-4.4782,-4.478,-4.4779,-4.4777,0,-4.3573,-4.3621,-4.3794,-4.3896,-4.3925,-4.4035,-4.4123,-4.4219,-4.4261,-4.4399,-4.4434,-4.4501,-4.4631,-4.4677,-4.4834,-4.4855,-4.5039,-4.5033,-4.5006,-4.5008,-4.5111,-4.5102,-4.5434,-4.548,-4.5209,-4.5212,-4.5214,0,-4.371,-4.3816,-4.393,-4.4002,-4.406,-4.4177,-4.4253,-4.4289,-4.4368,-4.4487,-4.4569,-4.4698,-4.4802,-4.501,-4.5073,-4.5194,-4.5193,-4.5301,-4.5211,-4.5203,-4.5197,-4.5191,-4.5203,-4.5318,-4.5321,-4.5323,-4.5325,0,-4.3949,-4.3967,-4.4077,-4.4195,-4.4286,-4.4381,-4.4473,-4.4533,-4.4583,-4.4672,-4.4804,-4.4886,-4.5047,-4.5175,-4.5299,-4.5356,-4.5351,-4.5353,-4.5384,-4.538,-4.5361,-4.5375,-4.5054,-4.5345,-4.5343,-4.5342,-4.5341,-4.534,-4.4115,-4.421,-4.4305,-4.4427,-4.45,-4.4587,-4.4682,-4.4737,-4.4848,-4.4982,-4.4996,-4.5139,-4.5235,-4.54,-4.5463,-4.5577,-4.5547,-4.5591,-4.5603,-4.5614,-4.5623,-4.5341,-4.5599,-4.5598,-4.5598,-4.5597,-4.5597,0,-4.4356,-4.4417,-4.4529,-4.4658,-4.4755,-4.4739,-4.4841,-4.4924,-4.5049,-4.5139,-4.5242,-4.5395,-4.552,-4.5594,-4.5719,-4.5796,-4.5797,-4.5828,-4.5824,-4.5838,-4.5641,-4.5602,-4.5826,-4.5826,-4.5826,-4.5825,-4.5825,-4.5825,-4.4492,-4.4652,-4.4682,-4.4878,-4.4938,-4.5078,-4.5138,-4.5218,-4.529,-4.5461,-4.5565,-4.5612,-4.5696,-4.5828,-4.5942,-4.5961,-4.6008,-4.6043,-4.6059,-4.5874,-4.5851,-4.5829,-4.5793,-4.6052,-4.6053,-4.6247,-4.6249,-4.625]}]]